sat.trackr.live / text

‹ back to catalog

STARLINK-6254

NORAD 57090 · 2023-088AU

PAYLOAD ACTIVE UNKNOWN

§ Identity

Operator
Country
US
Launch date
2023-06-22
Launch site
AFWTR
Launch vehicle
Mass (kg)
RCS (m²)

Purposes: comms

External: N2YO · Heavens-Above · Gunter

§ Orbital elements

Epoch: 2026-05-24T22:17:59.677152Z

Period
94.27 min
Inclination
43.0064°
Eccentricity
0.0001607
Mean motion
15.27579555 rev/d
Perigee alt
481.9 km
Apogee alt
484.2 km
Semi-major
6,861.2 km
B*
2.2508e-5
RAAN
25.2620°
Arg perigee
257.4082°
Mean anomaly
102.6590°
Rev number
16,216

§ Raw data

STARLINK-62541 57090U 23088AU  26144.92916293  .00000357  00000+0  22508-4 0  99952 57090  43.0064  25.2620 0001607 257.4082 102.6590 15.27579555162169

JSON: /api/v1/satellites/57090 · /tle

For live sub-satellite position, see the globe view (requires WebGL).

§ Visibility from observer

Set your observer location to see the next 7 days of passes ≥ 10°. The values pass through the URL so the page stays shareable.

No JS? Fill the form by hand. The geolocation button needs JavaScript.